C/2012 KA51 ( Palomar )

Japanese version
Home page
Updated on August 15, 2025

---------------------------------------------------------------------

* Profile

Discovery Date May 22, 2012
Magnitude 19.0 mag
Discoverer Palomar Transient Factory survey

* Pictures

* Orbital Elements

                    Epoch = 2011 Nov. 15.0 TT
     T = 2011 Nov.  1.55565 TT        Peri. =  94.16622
     e = 0.9939802                    Node  = 344.84653 2000.0
     q = 4.8952696 AU                 Incl. =  70.70697

* Magnitudes Graph

        m1 = -6.0 + 5 log d + 30 log r

---------------------------------------------------------------------

The orbital elements are printed on CBET 5549.
The magnitudes graphs are made with Comet for Windows.

---------------------------------------------------------------------

Copyright(C) Seiichi Yoshida (comet@aerith.net). All rights reserved.